Regional Weather Roundup
Issued by NWS Upton, NY

Current Version | Previous Version | Graphics & Text | Print | Product List | Glossary Off
Versions: 1 2 3 4 5 6 7 8 9 10 11 12 13 14 15 16 17 18 19 20 21 22 23 24 25 26 27 28 29 30 31 32 33 34 35 36 37 38 39 40 41 42 43 44 45 46 47 48 49 50

000
ASUS41 KOKX 300405
RWROKX

REGIONAL WEATHER ROUNDUP
NATIONAL WEATHER SERVICE NEW YORK NY
1200 AM EDT WED JUL 30 2014

NOTE: "FAIR" INDICATES FEW OR NO CLOUDS BELOW 12,000 FEET WITH NO
SIGNIFICANT WEATHER AND/OR OBSTRUCTIONS TO VISIBILITY.

NYZ071-072-176-178-NJZ106-104-300500-
NEW YORK CITY METRO AREA


CITY           SKY/WX    TMP DP  RH WIND       PRES   REMARKS
CENTRAL PARK   PTCLDY    67  52  58 CALM      30.00S
LAGUARDIA APRT MOCLDY    70  53  54 NW7       29.97S
KENNEDY INTL   CLOUDY    69  51  52 NW7       29.98S
NEWARK/LIBERTY PTCLDY    68  52  56 N5        29.98S
BRNX BOT. GARD   N/A     66  52  59 CALM      29.97F
TETERBORO      CLEAR     65  52  62 CALM      29.97S
$$

NYZ177-179-078>081-300500-
LONG ISLAND NEW YORK

CITY           SKY/WX    TMP DP  RH WIND       PRES   REMARKS
FARMINGDALE    CLEAR     67  52  58 CALM      29.98R
ISLIP          PTCLDY    66  53  63 CALM      29.96R
SHIRLEY        PTCLDY    62  54  74 CALM      29.98R
WESTHAMPTON    CLOUDY    58  53  84 CALM      29.98S
MONTAUK POINT    N/A     67  62  84 CALM      29.98R
$$

NYZ052-065-067-300500-
HUDSON VALLEY

CITY           SKY/WX    TMP DP  RH WIND       PRES   REMARKS
WHITE PLAINS   CLEAR     63  53  70 W5        29.97S
NEWBURGH       MOCLDY    63  57  82 W6        29.98F
MONTGOMERY     CLOUDY    62  56  80 SW3       29.98R
POUGHKEEPSIE   CLOUDY    63  58  83 CALM      29.96S
ALBANY         MOCLDY    63  52  67 CALM      29.96S
$$

NJZ001-105-106-008-010-013-015-019>022-104-300500-
NEW JERSEY

CITY           SKY/WX    TMP DP  RH WIND       PRES   REMARKS
NEWARK/LIBERTY PTCLDY    68  52  56 N5        29.98S
TETERBORO      CLEAR     65  52  62 CALM      29.97S
CALDWELL       CLEAR     60  53  77 CALM      29.99S
MORRISTOWN     CLEAR     57  54  88 CALM      29.99S
SOMERVILLE     CLEAR     57  54  89 CALM      29.98R FOG
LINDEN         CLOUDY    67  54  63 CALM      30.00R
SUSSEX         CLOUDY    62  56  80 CALM      29.99S
ANDOVER          N/A     55  54  96 CALM      30.01R
TRENTON        CLOUDY    64  55  72 N5        29.99R
MILLVILLE      CLOUDY    64  60  87 W5        29.99S
ATLANTIC CITY  CLOUDY    68  61  78 NW3       29.98S
WRIGHTSTOWN    MOCLDY    64  57  80 CALM      29.97R
TOMS RIVER     CLOUDY    63  57  82 CALM      29.99R
BELMAR         CLOUDY    66  55  68 NW3       29.98S
$$

PAZ047>061-062-071-300500-
EASTERN PENNSYLVANIA

CITY           SKY/WX    TMP DP  RH WIND       PRES   REMARKS
PHILADELPHIA   CLOUDY    70  53  54 NW7       30.00R
ALLENTOWN      CLEAR     58  52  80 CALM      30.00S
SCRANTON       CLEAR     56  51  84 E3        30.01R
$$

CTZ002-004>006-009-010-012-RIZ004-006-007-MAZ004-011-015-300500-
SOUTHERN NEW ENGLAND
 IN CT

CITY           SKY/WX    TMP DP  RH WIND       PRES   REMARKS
BRADLEY INTL   MOCLDY    63  53  70 CALM      29.95S
HARTFORD       CLOUDY    64  57  78 CALM      29.96R
DANBURY        MOCLDY    60  55  83 SW5       29.99R
WTRBRY/OXFORD  CLOUDY    59  54  82 CALM      29.99S
BRIDGEPORT     PTCLDY    67  57  70 S5        29.96S
MERIDEN        CLOUDY    60  57  89 CALM      29.97R
NEW HAVEN      CLOUDY    65  57  75 CALM      29.96S
CHESTER        CLOUDY    64  55  72 CALM      29.98R
GROTON         PTCLDY    62  59  90 NE3       29.96R
WILLIMANTIC    CLOUDY    59  57  93 NE3       29.97R

 IN RI

CITY           SKY/WX    TMP DP  RH WIND       PRES   REMARKS
PROVIDENCE     MOCLDY    65  55  70 W7        29.96R
BLOCK ISLAND   CLEAR     66  59  77 SW7       29.97S
WESTERLY       MOCLDY    62  59  90 N3        29.97R

 IN MA

CITY           SKY/WX    TMP DP  RH WIND       PRES   REMARKS
BOSTON         PTCLDY    69  54  58 W7        29.94R
WORCESTER      PTCLDY    60  52  74 W7        29.97S
WESTFIELD      CLEAR     56  54  93 CALM      29.96R
PROVINCETOWN   CLEAR     64  61  88 SW7       29.95R
NANTUCKET      CLEAR     64  61  90 SW6       29.97R
$$

ANZ330-335-338-340-345-350-353-355-300500-
COASTAL MARINE OBSERVATIONS


STATION/POSITION TIME  SKY/WX   TEMP    WIND        PRES    VSBY  WAVE
                                AIR SEA DIR/SP/G                  HT/PER
                 (UTC)          (F)     (DEG/KT/KT) (MB)    (MI)  (FT/S)
NY HARB ENTRANCE NOT AVBL
4S FIRE IS       NOT AVBL
23SW MTP         0400            69 69              1014.2          3/ 8
HUDSON CANYON    0400            71 75  240/  6/  8 1015.0          3/ 7
EXECUTION ROCKS  0400            69 70  280/  6/  8   N/A
WESTERN LI SOUND 0400            69     290/  6/  8   N/A           0
CENTRAL LI SOUND 0300            70 71  310/  4/  6   N/A           0
EASTERN LI SOUND 0300            67 68  260/  2/  4   N/A
ROBBINS REEF     0400            69     350/  5/  7   N/A
$$


>>>>>>>>>>>>>>>>>>>>>>>>>>>> KEY <<<<<<<<<<<<<<<<<<<<<<<<<<<
>                                                          <
>     SKY/WX - SKY CONDITION/PRESENT WEATHER               <
>     TMP    - TEMPERATURE IN FAHRENHEIT                   <
>     DP     - DEWPOINT IN FAHRENHEIT                      <
>     RH     - RELATIVE HUMIDITY IN PERCENT                <
>     WIND   - DIRECTION AND SPEED IN MPH                  <
>     PRES   - MEAN SEA LEVEL PRESSURE IN INCHES OF HG     <
>     WCI    - WIND CHILL INDEX                            <
>     VSB    - VISIBILITY IN MILES                         <
>     HX     - HEAT INDEX                                  <
>     TC     - TEMPERATURE IN CELSIUS                      <
>     VRB    - VARIABLE WIND DIRECTION                     <
>                                                          <
>>>>>>>>>>>>>>>>>>>>>>>>>>>> KEY <<<<<<<<<<<<<<<<<<<<<<<<<<<





USA.gov is the U.S. government's official web portal to all federal, state and local government web resources and services.